Location: *
(49.6619°S, 177.4603°W)
Time: 02:22:00
(UTC+00:00)

Cosmos 371 Rocket - Pass Details

Date: 31 January 2023
Orbit: 681 x 698 km, 74.0° (Epoch: 20 March)

Event Time Altitude Azimuth Distance (km) Brightness Sun altitude
Rises 09:43:50 0° 204° (SSW) 3,101 8.3 -16.2°
Reaches altitude 10° 09:46:11 10° 203° (SSW) 2,175 7.1 -16.4°
Maximum altitude 09:51:06 87° 113° (ESE) 704 3.2 -16.9°
Enters shadow 09:53:26 31° 25° (NNE) 1,205 4.0 -17.1°
